tititudorancea.com
Ararat Weather - Ararat,Victoria,Australia
 
Daily Summary for January 29, 2015 Units:  Metric    English   Both
« Previous Day
Next Day »
Daily Weekly Monthly Yearly Custom
  Current: High: Low: Average:
Temperature: 15.2 °C 15.2 °C 9 °C 10.8 °C
Dew Point: 7.5 °C 8.3 °C 5.9 °C 6.9 °C
Humidity: 60% 87% 60% 78%
Wind Speed: 7.2km/h 12.2km/h 0km/h 5.1km/h
Wind Gust: 20.9km/h 20.9km/h - -
WindSSE - - South
Pressure: 1015.1 hPa 1015.1 hPa 1013.4 hPa -
Precipitation: 0 mm      
Historical Graphs
 
 
Ararat weather Find more about Weather in Ararat, AU


 




 


Tabular Data for January 29, 2015
Time Temperature Dew Point Pressure Wind Wind Speed Wind Gust Humidity Rainfall Rate (Hourly)
00:00 13.1 °C 6.4 °C 1014.4 hPa SSE 6.1 km/h 19.5 km/h 64% 0 mm
00:05 12.9 °C 6.3 °C 1014.8 hPa SSE 6.1 km/h 19.5 km/h 64% 0 mm
00:10 12.9 °C 6.3 °C 1014.4 hPa SSE 5 km/h 13.4 km/h 64% 0 mm
00:15 12.8 °C 6.4 °C 1014.4 hPa SE 5 km/h 14.8 km/h 65% 0 mm
00:20 12.7 °C 6.3 °C 1014.4 hPa SE 2.6 km/h 14.8 km/h 65% 0 mm
00:25 12.7 °C 6.2 °C 1014.8 hPa SSE 1.1 km/h 14.8 km/h 65% 0 mm
00:30 12.7 °C 6.4 °C 1014.4 hPa South 6.1 km/h 14.8 km/h 66% 0 mm
00:35 12.6 °C 6.4 °C 1014.8 hPa SSE 2.6 km/h 11.1 km/h 66% 0 mm
00:40 12.4 °C 6.5 °C 1014.8 hPa SE 2.6 km/h 11.1 km/h 67% 0 mm
00:45 12.3 °C 6.4 °C 1014.8 hPa SE 1.1 km/h 11.1 km/h 67% 0 mm
00:50 12.3 °C 6.4 °C 1014.8 hPa ESE 5 km/h 9.7 km/h 67% 0 mm
00:55 12.2 °C 6.1 °C 1014.8 hPa Calm   9.7 km/h 66% 0 mm
01:00 12.2 °C 6 °C 1014.8 hPa SE 1.1 km/h 5 km/h 66% 0 mm
01:05 12.2 °C 6 °C 1014.8 hPa ENE 1.1 km/h 5 km/h 66% 0 mm
01:10 12.1 °C 6.1 °C 1014.4 hPa SSW 1.1 km/h 5 km/h 67% 0 mm
01:15 11.9 °C 6 °C 1014.8 hPa SSW 1.1 km/h 5 km/h 67% 0 mm
01:20 11.8 °C 5.9 °C 1014.8 hPa Calm   3.5 km/h 67% 0 mm
01:25 11.8 °C 6.1 °C 1014.8 hPa SSW 5 km/h 8.7 km/h 68% 0 mm
01:30 11.8 °C 6.3 °C 1014.4 hPa SSE 2.6 km/h 9.7 km/h 69% 0 mm
01:36 11.7 °C 6.4 °C 1014.4 hPa SSE 1.1 km/h 9.7 km/h 70% 0 mm
01:41 11.6 °C 6.3 °C 1014.4 hPa SSE 2.6 km/h 6.1 km/h 70% 0 mm
01:46 11.4 °C 6.2 °C 1014.4 hPa Calm   6.1 km/h 70% 0 mm
01:51 11.6 °C 6.1 °C 1014.4 hPa Calm   5 km/h 69% 0 mm
01:56 11.4 °C 6 °C 1014.1 hPa South 2.6 km/h 5 km/h 69% 0 mm
02:01 11.4 °C 6.1 °C 1014.1 hPa Calm   5 km/h 70% 0 mm
02:06 11.4 °C 5.9 °C 1013.8 hPa South 1.1 km/h 5 km/h 69% 0 mm
02:11 11.4 °C 6.5 °C 1013.8 hPa South 5 km/h 9.7 km/h 72% 0 mm
02:16 11.2 °C 6.7 °C 1013.8 hPa SSW 5 km/h 9.7 km/h 74% 0 mm
02:21 11.1 °C 6.8 °C 1013.8 hPa SSW 5 km/h 12.2 km/h 75% 0 mm
02:26 11 °C 6.9 °C 1013.8 hPa South 3.5 km/h 12.2 km/h 76% 0 mm
02:31 10.9 °C 6.8 °C 1013.8 hPa South 3.5 km/h 9.7 km/h 76% 0 mm
02:36 10.8 °C 6.9 °C 1013.8 hPa South 6.1 km/h 9.7 km/h 77% 0 mm
02:41 10.8 °C 6.9 °C 1013.8 hPa SSW 5 km/h 11.1 km/h 77% 0 mm
02:46 10.7 °C 7 °C 1013.8 hPa SSW 6.1 km/h 12.2 km/h 78% 0 mm
02:51 10.6 °C 6.9 °C 1013.4 hPa South 5 km/h 12.2 km/h 78% 0 mm
02:56 10.6 °C 7.1 °C 1013.8 hPa SSW 6.1 km/h 13.4 km/h 79% 0 mm
03:01 10.5 °C 7 °C 1013.4 hPa SSW 6.1 km/h 13.4 km/h 79% 0 mm
03:06 10.5 °C 7 °C 1013.4 hPa SSW 3.5 km/h 11.1 km/h 79% 0 mm
03:11 10.4 °C 6.9 °C 1013.8 hPa SSW 2.6 km/h 9.7 km/h 79% 0 mm
03:16 10.4 °C 6.9 °C 1013.8 hPa South 2.6 km/h 8.7 km/h 79% 0 mm
03:21 10.3 °C 6.8 °C 1013.8 hPa SSW 3.5 km/h 9.7 km/h 79% 0 mm
03:26 10.3 °C 6.8 °C 1013.8 hPa SSW 3.5 km/h 11.1 km/h 79% 0 mm
03:31 10.2 °C 6.9 °C 1013.4 hPa South 5 km/h 11.1 km/h 80% 0 mm
03:36 10.2 °C 6.9 °C 1013.4 hPa South 7.2 km/h 12.2 km/h 80% 0 mm
03:41 10.1 °C 7 °C 1013.8 hPa South 5 km/h 12.2 km/h 81% 0 mm
03:47 10.1 °C 7 °C 1013.8 hPa SSW 7.2 km/h 17.2 km/h 81% 0 mm
03:52 10.1 °C 7 °C 1013.8 hPa South 7.2 km/h 17.2 km/h 81% 0 mm
03:57 10 °C 6.9 °C 1013.4 hPa South 7.2 km/h 14.8 km/h 81% 0 mm
04:02 10 °C 7.1 °C 1013.4 hPa South 7.2 km/h 13.4 km/h 82% 0 mm
04:07 9.9 °C 6.9 °C 1013.4 hPa South 6.1 km/h 13.4 km/h 82% 0 mm
04:12 9.9 °C 6.9 °C 1013.4 hPa South 5 km/h 13.4 km/h 82% 0 mm
04:17 9.8 °C 6.9 °C 1013.4 hPa South 5 km/h 12.2 km/h 82% 0 mm
04:22 9.8 °C 7.1 °C 1013.4 hPa South 7.2 km/h 13.4 km/h 83% 0 mm
04:27 9.7 °C 6.9 °C 1013.4 hPa SSW 5 km/h 14.8 km/h 83% 0 mm
04:32 9.7 °C 6.9 °C 1013.4 hPa SSW 6.1 km/h 14.8 km/h 83% 0 mm
04:37 9.6 °C 7.1 °C 1013.4 hPa SSW 8.7 km/h 14.8 km/h 84% 0 mm
04:42 9.6 °C 7.1 °C 1013.4 hPa South 9.7 km/h 13.4 km/h 84% 0 mm
04:47 9.6 °C 7.1 °C 1013.4 hPa SSW 8.7 km/h 13.4 km/h 84% 0 mm
04:52 9.5 °C 6.9 °C 1013.4 hPa SSW 7.2 km/h 13.4 km/h 84% 0 mm
04:57 9.5 °C 6.9 °C 1013.4 hPa South 7.2 km/h 14.8 km/h 84% 0 mm
05:02 9.5 °C 7.1 °C 1013.4 hPa South 8.7 km/h 15.8 km/h 85% 0 mm
05:07 9.4 °C 7 °C 1013.4 hPa SSW 6.1 km/h 15.8 km/h 85% 0 mm
05:12 9.4 °C 7 °C 1013.4 hPa SSW 7.2 km/h 13.4 km/h 85% 0 mm
05:17 9.3 °C 6.9 °C 1013.4 hPa SSW 8.7 km/h 13.4 km/h 85% 0 mm
05:22 9.3 °C 7.1 °C 1013.4 hPa SSW 11.1 km/h 17.2 km/h 86% 0 mm
05:27 9.2 °C 7 °C 1013.4 hPa SSW 5 km/h 17.2 km/h 86% 0 mm
05:32 9.2 °C 7 °C 1013.4 hPa SSW 6.1 km/h 12.2 km/h 86% 0 mm
05:37 9.1 °C 6.9 °C 1013.4 hPa SSW 7.2 km/h 14.8 km/h 86% 0 mm
05:42 9.1 °C 6.9 °C 1013.4 hPa SSW 7.2 km/h 14.8 km/h 86% 0 mm
05:48 9.1 °C 6.9 °C 1013.4 hPa SSW 7.2 km/h 13.4 km/h 86% 0 mm
05:52 9.1 °C 6.9 °C 1013.4 hPa SSW 5 km/h 13.4 km/h 86% 0 mm
05:58 9.1 °C 6.9 °C 1013.4 hPa SSW 5 km/h 13.4 km/h 86% 0 mm
06:03 9.1 °C 6.9 °C 1013.4 hPa SSW 7.2 km/h 12.2 km/h 86% 0 mm
06:08 9.1 °C 6.9 °C 1013.8 hPa South 6.1 km/h 12.2 km/h 86% 0 mm
06:13 9.1 °C 6.9 °C 1013.4 hPa South 6.1 km/h 12.2 km/h 86% 0 mm
06:18 9 °C 6.9 °C 1013.4 hPa SSW 5 km/h 12.2 km/h 87% 0 mm
06:23 9 °C 6.9 °C 1013.4 hPa SSW 6.1 km/h 11.1 km/h 87% 0 mm
06:28 9.1 °C 7.1 °C 1013.8 hPa SSW 3.5 km/h 11.1 km/h 87% 0 mm
06:33 9 °C 6.9 °C 1013.8 hPa South 3.5 km/h 13.4 km/h 87% 0 mm
06:38 9 °C 6.9 °C 1013.8 hPa South 5 km/h 13.4 km/h 87% 0 mm
06:43 9.1 °C 7.1 °C 1013.8 hPa SSW 3.5 km/h 9.7 km/h 87% 0 mm
06:48 9.1 °C 6.9 °C 1014.1 hPa SSW 3.5 km/h 8.7 km/h 86% 0 mm
06:53 9.1 °C 6.9 °C 1014.1 hPa South 6.1 km/h 8.7 km/h 86% 0 mm
06:58 9.1 °C 6.9 °C 1013.8 hPa South 2.6 km/h 9.7 km/h 86% 0 mm
07:03 9.1 °C 6.9 °C 1014.1 hPa South 3.5 km/h 9.7 km/h 86% 0 mm
07:08 9.2 °C 7 °C 1014.1 hPa SSW 3.5 km/h 7.2 km/h 86% 0 mm
07:13 9.3 °C 7.1 °C 1014.1 hPa SSW 3.5 km/h 7.2 km/h 86% 0 mm
07:18 9.4 °C 7.2 °C 1014.1 hPa South 1.1 km/h 9.7 km/h 86% 0 mm
07:23 9.5 °C 7.3 °C 1014.4 hPa SSW 3.5 km/h 9.7 km/h 86% 0 mm
07:28 9.7 °C 7.3 °C 1014.4 hPa SW 3.5 km/h 9.7 km/h 85% 0 mm
07:33 9.9 °C 7.5 °C 1014.4 hPa SSW 2.6 km/h 9.7 km/h 85% 0 mm
07:39 10.1 °C 7.5 °C 1014.4 hPa SSW 3.5 km/h 12.2 km/h 84% 0 mm
07:44 10.3 °C 7.7 °C 1014.4 hPa SSW 2.6 km/h 12.2 km/h 84% 0 mm
07:49 10.5 °C 7.7 °C 1014.4 hPa SSW 9.7 km/h 17.2 km/h 83% 0 mm
07:54 10.7 °C 7.7 °C 1014.4 hPa SSW 7.2 km/h 17.2 km/h 82% 0 mm
07:59 10.9 °C 7.9 °C 1014.8 hPa South 8.7 km/h 17.2 km/h 82% 0 mm
08:04 11.1 °C 7.9 °C 1014.8 hPa South 6.1 km/h 14.8 km/h 81% 0 mm
08:09 11.3 °C 7.9 °C 1014.8 hPa South 9.7 km/h 13.4 km/h 80% 0 mm
08:14 11.4 °C 7.9 °C 1014.8 hPa SSW 8.7 km/h 13.4 km/h 79% 0 mm
08:19 11.8 °C 8.1 °C 1014.8 hPa South 6.1 km/h 14.8 km/h 78% 0 mm
08:24 12.1 °C 8.3 °C 1014.8 hPa South 5 km/h 15.8 km/h 78% 0 mm
08:29 12.3 °C 8.2 °C 1014.8 hPa South 8.7 km/h 15.8 km/h 76% 0 mm
08:34 12.7 °C 8.2 °C 1014.8 hPa SSE 7.2 km/h 17.2 km/h 74% 0 mm
08:39 13.2 °C 8.3 °C 1014.8 hPa SSE 7.2 km/h 17.2 km/h 72% 0 mm
08:44 13.6 °C 8.3 °C 1014.8 hPa SE 9.7 km/h 17.2 km/h 70% 0 mm
08:49 13.9 °C 7.9 °C 1014.8 hPa SSE 8.7 km/h 20.9 km/h 67% 0 mm
08:54 14.5 °C 7.8 °C 1014.8 hPa SSE 11.1 km/h 20.9 km/h 64% 0 mm
08:59 14.7 °C 7.5 °C 1015.1 hPa SSE 12.2 km/h 19.5 km/h 62% 0 mm
09:04 14.9 °C 7.4 °C 1015.1 hPa SSE 11.1 km/h 19.5 km/h 61% 0 mm
09:09 15.2 °C 7.5 °C 1015.1 hPa SSE 7.2 km/h 20.9 km/h 60% 0 mm
www.araratweather.com - Email: contact at araratweather.com
Data created with Cumulus & bmak
Click here to send mail.


ABOUT

Live weather data from Ararat, Victoria, Australia, 3377
Data uploaded from Cumulus every 5 minutes to Weather Underground.
This site then downloads the raw data for formatting and display.
Metric and imperial data can be displayed. Graphs and historical data available.
Includes Sun and Moon times and rain image live from BOM.

Check out Ararat Weather on Facebook, Twitter and Google +

Help support ongoing costs by checking out the ads





Follow @AraratWeather